Elko Regional Airport
KEKO : now visible

Airfield :











YOU CAN JOIN US ON...

 
LOGIN :

Register | Disclaimer

   EN    FR    IT 

 









Legend :    VFR   Marginal VFR   IFR   Intensive IFR   Very Intensive IFR
Visi :
Ceiling :
>= 8 km
>= 3000ft
5 to 8 km
1000 to 3000 ft
1500m to 5 km
500 to 1000 ft
800 to 1500m
200 to 500 ft
< 800m
< 200 ft
Symbols :   Thunderstorms  Fog  Heavy snow  Heavy precipitations  Wind > 20 kt






- Airport Elevation : 5140 ft
- IATA code : EKO


KEKO - Elko Regional

CURRENT METAR :
  • 291556Z AUTO 00000KT 10SM CLR 22/08 A3015 RMK AO2 SLP152 T02220078

EXPIRED METARs :
  • 291456Z AUTO 10003KT 10SM CLR 17/07 A3017 RMK AO2 SLP156 T01720072 51011
  • 291356Z AUTO 12005KT 10SM CLR 13/07 A3016 RMK AO2 SLP157 T01330072

TAF KEKO
Valid from the 29 at 12:00 until the 30 at 12:00 UTC


291138Z 2912/3012 VRB03KT P6SM FEW120
FM291900 21010G20KT P6SM BKN120
FM300300 13011KT P6SM FEW250
KZLC FIR / North America



MET'MAP, your aeronautical weather chart ! - Copyright ORBIFLY December 2007 - Disclaimer

ORBIFLY MET'MAP TEAM :

Programming & Development : Alexandra Zaïnal
Concept & original design : Baudouin d'Aumeries
Assistance for programming : Marc-Olivier Méhu
Technical & hardware support : Manuel Goepfert

Contact : metmap@orbifly.com




SOURCES & CREDITS :

   NOAA       Earth
Advisory